Weather in Whitianga

New Zealand     36°49′57″S   175°40′30″E
temp.,
°C
wind,
m/s
gust,
m/s
humid.,
%
clouds,
%
prec.,
mm/h
press.,
hPa
HPBL,
m
28 november, sun
sun2801:00+16w338850 0.0 1023119
04:00+15sw338572 0.0 1023101
07:00+15ssw2278100 0.0 1024104
10:00+19nne1159100 0.0 1024391
13:00+19nne4461100 0.0 1023534
16:00+20n556770 0.0 1021574
19:00+20nw577081 0.0 1021268
22:00+18wnw468399 0.0 1023269
29 november, mon
mon2901:00+17wsw3485100 0.0 1022123
04:00+16wsw3485100 0.0 1021127
07:00+16sw2380100 0.0 1022135
10:00+20nnw2257100 0.0 1022362
13:00+22nw345091 0.0 1020525
16:00+24wnw56495 0.0 1018520
19:00+21wnw586298 0.0 1019235
22:00+18w368032 0.0 1020147
30 november, tue
tue3001:00+16wsw3485100 0.0 1020120
04:00+16wsw348839 0.0 1019128
07:00+16wsw34855 0.0 1019135
10:00+21nw3464100 0.0 1019375
13:00+23wnw5659100 0.0 1018555
16:00+22w456273 0.0 1017413
19:00+19wsw4583100 0.2 1018191
22:00+17wsw3592100 1.2 1020259
1 december, wed
wed101:00+17wsw349229 1.3 1019182
04:00+17wsw249415 0.0 1019148
07:00+17wsw249199 0.0 1020156
10:00+20sw137922 0.1 1020329
13:00+20se677647 0.4 1021597
16:00+20ese466910 0.0 1020625
19:00+20ene237950 0.0 1021292
22:00+19n468898 0.1 1023426
2 december, thu
thu201:00+18ne458687 0.6 1024444
04:00+18e4585100 0.1 1024518
07:00+17se4584100 0.4 1025384
10:00+18ese5575100 0.0 1025689
13:00+18e567497 0.1 1025871
16:00+18e567193 0.0 1024855
19:00+18e457187 0.0 1024874
22:00+17e5676100 0.0 1026748